TimeCST,TemperatureF,Dew PointF,Humidity,Sea Level PressureIn,VisibilityMPH,Wind Direction,Wind SpeedMPH,Gust SpeedMPH,PrecipitationIn,Events,Conditions,WindDirDegrees,DateUTC
12:15 AM,8.6,6.8,92,29.90,10.0,ESE,11.5,-,N/A,,Overcast,120,2012-12-12 06:15:00
12:34 AM,8.6,6.8,92,29.88,10.0,ESE,13.8,-,N/A,,Mostly Cloudy,120,2012-12-12 06:34:00
12:54 AM,10.4,6.8,85,29.87,10.0,ESE,15.0,-,N/A,,Scattered Clouds,120,2012-12-12 06:54:00
1:14 AM,10.4,6.8,85,29.87,10.0,SE,12.7,-,N/A,,Scattered Clouds,130,2012-12-12 07:14:00
1:55 AM,10.4,6.8,85,29.85,10.0,SE,16.1,-,N/A,,Scattered Clouds,130,2012-12-12 07:55:00
2:14 AM,10.4,6.8,85,29.83,10.0,ESE,15.0,-,N/A,,Mostly Cloudy,120,2012-12-12 08:14:00
2:34 AM,10.4,8.6,92,29.84,10.0,SE,11.5,-,N/A,,Overcast,130,2012-12-12 08:34:00
2:54 AM,12.2,8.6,85,29.83,10.0,SE,12.7,-,N/A,,Overcast,140,2012-12-12 08:54:00
3:14 AM,12.2,10.4,92,29.82,7.0,SE,15.0,-,N/A,,Overcast,130,2012-12-12 09:14:00
3:54 AM,12.2,10.4,92,29.80,7.0,SE,15.0,-,N/A,,Mostly Cloudy,140,2012-12-12 09:54:00
4:14 AM,12.2,10.4,92,29.79,7.0,SE,12.7,-,N/A,Snow,Light Snow,140,2012-12-12 10:14:00
4:34 AM,12.2,10.4,92,29.78,7.0,SE,11.5,-,N/A,,Scattered Clouds,140,2012-12-12 10:34:00
4:54 AM,14.0,12.2,93,29.78,7.0,SSE,11.5,-,N/A,Snow,Light Snow,150,2012-12-12 10:54:00
5:14 AM,14.0,10.4,86,29.78,7.0,SE,11.5,-,N/A,,Clear,140,2012-12-12 11:14:00
5:34 AM,12.2,10.4,92,29.77,7.0,SE,13.8,-,N/A,,Clear,140,2012-12-12 11:34:00
5:54 AM,12.2,10.4,92,29.77,7.0,SE,12.7,-,N/A,,Clear,140,2012-12-12 11:54:00
6:15 AM,12.2,10.4,92,29.76,10.0,SE,13.8,-,N/A,,Clear,130,2012-12-12 12:15:00
6:35 AM,12.2,10.4,92,29.76,10.0,SE,13.8,-,N/A,,Scattered Clouds,140,2012-12-12 12:35:00
6:54 AM,14.0,10.4,86,29.76,10.0,SE,12.7,-,N/A,,Mostly Cloudy,140,2012-12-12 12:54:00
7:15 AM,14.0,12.2,93,29.75,10.0,SE,12.7,-,N/A,,Scattered Clouds,130,2012-12-12 13:15:00
7:35 AM,15.8,12.2,86,29.75,10.0,SE,15.0,-,N/A,,Mostly Cloudy,130,2012-12-12 13:35:00
7:54 AM,15.8,12.2,86,29.74,10.0,SE,13.8,-,N/A,,Scattered Clouds,130,2012-12-12 13:54:00
8:15 AM,15.8,12.2,86,29.75,10.0,SE,13.8,-,N/A,,Clear,140,2012-12-12 14:15:00
8:34 AM,15.8,12.2,86,29.75,10.0,SE,11.5,-,N/A,,Mostly Cloudy,140,2012-12-12 14:34:00
8:54 AM,15.8,12.2,86,29.74,10.0,SE,12.7,-,N/A,,Scattered Clouds,140,2012-12-12 14:54:00
9:14 AM,17.6,12.2,79,29.75,10.0,SE,12.7,-,N/A,,Clear,130,2012-12-12 15:14:00
9:35 AM,17.6,14.0,86,29.75,10.0,SE,13.8,-,N/A,,Clear,140,2012-12-12 15:35:00
9:54 AM,19.4,15.8,86,29.75,10.0,SE,12.7,-,N/A,,Clear,140,2012-12-12 15:54:00
10:15 AM,19.4,15.8,86,29.76,10.0,SE,12.7,-,N/A,,Clear,130,2012-12-12 16:15:00
10:35 AM,19.4,15.8,86,29.77,10.0,SE,9.2,-,N/A,,Clear,130,2012-12-12 16:35:00
10:55 AM,21.2,15.8,80,29.77,10.0,SE,8.1,-,N/A,,Clear,130,2012-12-12 16:55:00
11:14 AM,21.2,17.6,86,29.77,10.0,SE,8.1,-,N/A,,Clear,130,2012-12-12 17:14:00
11:34 AM,21.2,17.6,86,29.77,10.0,SE,6.9,-,N/A,,Clear,130,2012-12-12 17:34:00
11:54 AM,24.8,17.6,74,29.77,10.0,ESE,6.9,-,N/A,,Clear,120,2012-12-12 17:54:00
12:15 PM,24.8,17.6,74,29.76,10.0,ESE,8.1,-,N/A,,Clear,120,2012-12-12 18:15:00
12:34 PM,24.8,19.4,80,29.76,10.0,SE,11.5,-,N/A,,Clear,140,2012-12-12 18:34:00
12:55 PM,24.8,19.4,80,29.75,10.0,SE,8.1,-,N/A,,Clear,130,2012-12-12 18:55:00
1:14 PM,24.8,19.4,80,29.75,10.0,ESE,6.9,-,N/A,,Clear,120,2012-12-12 19:14:00
1:55 PM,26.6,21.2,80,29.77,10.0,ESE,5.8,-,N/A,,Clear,120,2012-12-12 19:55:00
2:15 PM,28.4,21.2,74,29.77,10.0,SSE,4.6,-,N/A,,Clear,150,2012-12-12 20:15:00
2:35 PM,28.4,21.2,74,29.78,10.0,SSE,4.6,-,N/A,,Clear,150,2012-12-12 20:35:00
2:55 PM,28.4,21.2,74,29.78,10.0,SE,4.6,-,N/A,,Clear,140,2012-12-12 20:55:00
3:15 PM,28.4,21.2,74,29.79,10.0,SSE,3.5,-,N/A,,Clear,150,2012-12-12 21:15:00
3:35 PM,26.6,21.2,80,29.79,10.0,Calm,Calm,-,N/A,,Clear,0,2012-12-12 21:35:00
3:55 PM,26.6,21.2,80,29.80,10.0,Calm,Calm,-,N/A,,Clear,0,2012-12-12 21:55:00
4:15 PM,26.6,23.0,86,29.81,10.0,Calm,Calm,-,N/A,,Scattered Clouds,0,2012-12-12 22:15:00
4:35 PM,26.6,23.0,86,29.82,10.0,Calm,Calm,-,N/A,,Mostly Cloudy,0,2012-12-12 22:35:00
4:54 PM,28.4,23.0,80,29.82,10.0,Calm,Calm,-,N/A,,Mostly Cloudy,0,2012-12-12 22:54:00
5:15 PM,26.6,21.2,80,29.83,10.0,Calm,Calm,-,N/A,,Scattered Clouds,0,2012-12-12 23:15:00
5:35 PM,26.6,23.0,86,29.84,10.0,Calm,Calm,-,N/A,,Mostly Cloudy,0,2012-12-12 23:35:00
5:55 PM,26.6,23.0,86,29.84,10.0,Calm,Calm,-,N/A,,Mostly Cloudy,0,2012-12-12 23:55:00
6:35 PM,26.6,23.0,86,29.86,10.0,NNW,3.5,-,N/A,,Overcast,330,2012-12-13 00:35:00
6:55 PM,26.6,23.0,86,29.88,10.0,NW,5.8,-,N/A,,Overcast,320,2012-12-13 00:55:00
7:14 PM,26.6,23.0,86,29.89,10.0,NW,4.6,-,N/A,,Mostly Cloudy,320,2012-12-13 01:14:00
7:34 PM,26.6,21.2,80,29.89,10.0,North,4.6,-,N/A,,Overcast,350,2012-12-13 01:34:00
7:54 PM,24.8,21.2,86,29.88,10.0,North,6.9,-,N/A,,Mostly Cloudy,350,2012-12-13 01:54:00
8:15 PM,23.0,19.4,86,29.88,10.0,North,9.2,-,N/A,,Scattered Clouds,350,2012-12-13 02:15:00
8:55 PM,21.2,17.6,86,29.89,10.0,NNW,10.4,-,N/A,,Clear,340,2012-12-13 02:55:00
9:14 PM,21.2,17.6,86,29.90,10.0,NNW,10.4,-,N/A,,Clear,330,2012-12-13 03:14:00
9:34 PM,21.2,17.6,86,29.90,7.0,NNW,10.4,-,N/A,,Clear,340,2012-12-13 03:34:00
9:54 PM,19.4,17.6,93,29.91,7.0,NNW,6.9,-,N/A,,Clear,340,2012-12-13 03:54:00
10:15 PM,19.4,17.6,93,29.91,7.0,NNW,10.4,-,N/A,,Clear,340,2012-12-13 04:15:00
10:35 PM,19.4,17.6,93,29.91,7.0,North,9.2,-,N/A,,Clear,350,2012-12-13 04:35:00
10:55 PM,19.4,15.8,86,29.92,10.0,North,9.2,-,N/A,,Scattered Clouds,350,2012-12-13 04:55:00
11:15 PM,19.4,15.8,86,29.92,10.0,NNW,8.1,-,N/A,,Scattered Clouds,330,2012-12-13 05:15:00
11:35 PM,17.6,15.8,93,29.93,10.0,NW,6.9,-,N/A,,Scattered Clouds,310,2012-12-13 05:35:00
11:55 PM,17.6,15.8,93,29.93,7.0,NW,6.9,-,N/A,,Mostly Cloudy,310,2012-12-13 05:55:00